EW9081 Weather Reports


Display with metric or nautical units.
time (UTC)temp
F
wind
direction
speed
MPH
gust
MPH
rain 1hr
in
rain 24hr
in
rain mn
in
humidity
%
barometer
mb
20260509222454 76 5 2.0 4.0 0.00 0.00 0.00 43 1015.8
20260509222108 76 290 1.0 4.0 0.00 0.00 0.00 46 1016.1
20260509221958 76 298 1.0 5.0 0.00 0.00 0.00 42 1016.0
20260509221953 76 305 2.0 5.0 0.00 0.00 0.00 45 1015.9
20260509220454 76 322 2.0 4.0 0.00 0.00 0.00 44 1016.2
20260509215953 76 54 1.0 4.0 0.00 0.00 0.00 46 1016.4
20260509215453 76 22 1.0 3.0 0.00 0.00 0.00 49 1016.4
20260509214956 75 332 2.0 7.0 0.00 0.00 0.00 42 1016.7
20260509214952 76 79 1.0 4.0 0.00 0.00 0.00 46 1016.6
20260509213950 75 10 2.0 7.0 0.00 0.00 0.00 43 1016.8
20260509213450 75 9 2.0 4.0 0.00 0.00 0.00 48 1016.9
20260509212951 75 5 1.0 4.0 0.00 0.00 0.00 44 1017.0
20260509212450 74 335 1.0 4.0 0.00 0.00 0.00 50 1017.1
20260509211950 74 268 1.0 2.0 0.00 0.00 0.00 44 1017.1
20260509211450 74 163 1.0 2.0 0.00 0.00 0.00 51 1017.2
20260509210950 73 78 1.0 4.0 0.00 0.00 0.00 47 1017.3
20260509210450 73 71 2.0 4.0 0.00 0.00 0.00 50 1017.4
20260509205950 73 338 2.0 4.0 0.00 0.00 0.00 55 1017.5
20260509205448 73 159 1.0 4.0 0.00 0.00 0.00 50 1017.5
20260509204948 73 239 1.0 4.0 0.00 0.00 0.00 50 1017.5
20260509204448 72 59 1.0 2.0 0.00 0.00 0.00 55 1017.6
20260509203948 72 58 1.0 3.0 0.00 0.00 0.00 48 1017.6
20260509203448 72 30 1.0 3.0 0.00 0.00 0.00 55 1017.7
20260509202952 71 244 1.0 4.0 0.00 0.00 0.00 52 1017.8
20260509202948 72 64 1.0 3.0 0.00 0.00 0.00 54 1017.8
20260509201948 71 142 0.0 4.0 0.00 0.00 0.00 50 1017.9
20260509201449 71 294 1.0 4.0 0.00 0.00 0.00 51 1017.9
20260509200948 71 5 1.0 4.0 0.00 0.00 0.00 53 1018.0
20260509200446 70 24 1.0 3.0 0.00 0.00 0.00 64 1018.2
20260509195946 69 231 1.0 4.0 0.00 0.00 0.00 56 1018.3
20260509195447 69 325 2.0 4.0 0.00 0.00 0.00 56 1018.4
20260509194946 69 347 2.0 4.0 0.00 0.00 0.00 59 1018.4
20260509194446 68 13 2.0 5.0 0.00 0.00 0.00 59 1018.4
20260509193947 68 16 2.0 5.0 0.00 0.00 0.00 58 1018.6
20260509193450 67 337 2.0 5.0 0.00 0.00 0.00 59 1018.6
20260509193445 67 291 2.0 5.0 0.00 0.00 0.00 61 1018.7
20260509192446 67 272 3.0 5.0 0.00 0.00 0.00 61 1018.8
20260509191944 67 326 2.0 5.0 0.00 0.00 0.00 63 1018.8
20260509191441 67 351 1.0 4.0 0.00 0.00 0.00 66 1018.9
20260509190947 66 200 1.0 2.0 0.00 0.00 0.00 66 1019.0
20260509190942 67 344 1.0 4.0 0.00 0.00 0.00 65 1018.9
20260509190442 67 301 1.0 3.0 0.00 0.00 0.00 64 1018.9
20260509185442 66 288 1.0 3.0 0.00 0.00 0.00 68 1019.1
20260509184942 65 290 1.0 5.0 0.00 0.00 0.00 67 1019.2
20260509184442 65 351 2.0 5.0 0.00 0.00 0.00 64 1019.2
20260509183942 65 5 2.0 5.0 0.00 0.00 0.00 67 1019.3
20260509183442 65 298 2.0 5.0 0.00 0.00 0.00 63 1019.2
20260509182939 66 325 1.0 3.0 0.00 0.00 0.00 66 1019.2
20260509182438 65 162 1.0 3.0 0.00 0.00 0.00 67 1019.3
20260509181938 64 304 1.0 5.0 0.00 0.00 0.00 67 1019.4
20260509181438 64 331 1.0 5.0 0.00 0.00 0.00 71 1019.4
20260509180938 64 246 1.0 3.0 0.00 0.00 0.00 71 1019.4
20260509180436 64 167 1.0 3.0 0.00 0.00 0.00 71 1019.4
20260509175933 64 35 1.0 3.0 0.00 0.00 0.00 70 1019.5
20260509175434 64 12 1.0 3.0 0.00 0.00 0.00 70 1019.6
20260509174939 62 194 1.0 3.0 0.00 0.00 0.00 72 1019.7
20260509174934 63 38 1.0 3.0 0.00 0.00 0.00 72 1019.7
20260509174546 62 257 1.0 3.0 0.00 0.00 0.00 71 1019.8
20260509173431 62 305 2.0 4.0 0.00 0.00 0.00 73 1019.8
20260509172932 61 5 2.0 4.0 0.00 0.00 0.00 71 1019.9
20260509172432 61 312 1.0 3.0 0.00 0.00 0.00 74 1020.0
20260509171929 61 349 1.0 3.0 0.00 0.00 0.00 73 1020.0
20260509171430 61 351 1.0 3.0 0.00 0.00 0.00 75 1019.9
20260509170930 61 188 1.0 2.0 0.00 0.00 0.00 76 1020.0
20260509170428 60 112 1.0 3.0 0.00 0.00 0.00 76 1019.9
20260509165926 60 146 1.0 3.0 0.00 0.00 0.00 77 1019.9
20260509165426 60 178 0.0 2.0 0.00 0.00 0.00 77 1020.0
20260509164930 58 175 1.0 3.0 0.00 0.00 0.00 78 1020.2
20260509164925 59 177 1.0 3.0 0.00 0.00 0.00 80 1020.2
20260509163927 58 176 1.0 4.0 0.00 0.00 0.00 79 1020.2
20260509163427 58 169 0.0 4.0 0.00 0.00 0.00 78 1020.2
20260509162925 58 123 0.0 4.0 0.00 0.00 0.00 81 1020.3
20260509162425 58 123 0.0 4.0 0.00 0.00 0.00 80 1020.3
20260509161927 57 159 1.0 3.0 0.00 0.00 0.00 82 1020.4
20260509161427 57 21 1.0 3.0 0.00 0.00 0.00 83 1020.4
20260509160925 57 60 1.0 2.0 0.00 0.00 0.00 83 1020.5
20260509160426 56 53 1.0 2.0 0.00 0.00 0.00 86 1020.4
20260509155927 56 44 0.0 2.0 0.00 0.00 0.00 87 1020.6
20260509155431 54 177 1.0 4.0 0.00 0.00 0.00 88 1020.7
20260509155425 55 177 1.0 3.0 0.00 0.00 0.00 86 1020.7
20260509154926 55 177 1.0 3.0 0.00 0.00 0.00 88 1020.7
20260509153927 54 178 1.0 4.0 0.00 0.00 0.00 89 1020.6
20260509153425 53 173 0.0 3.0 0.00 0.00 0.00 89 1020.8
20260509152931 52 162 0.0 2.0 0.00 0.00 0.00 91 1020.7
20260509152927 53 173 0.0 3.0 0.00 0.00 0.00 90 1020.7
20260509151925 51 162 0.0 2.0 0.00 0.00 0.00 91 1020.8
20260509151427 51 162 0.0 2.0 0.00 0.00 0.00 92 1020.8
20260509150926 51 162 0.0 2.0 0.00 0.00 0.00 92 1020.8
20260509150433 49 162 0.0 1.0 0.00 0.00 0.00 94 1021.1
20260509150426 50 162 0.0 2.0 0.00 0.00 0.00 93 1020.9
20260509145927 50 162 0.0 2.0 0.00 0.00 0.00 93 1021.1
20260509144925 49 162 0.0 1.0 0.00 0.00 0.00 94 1021.1
20260509144426 48 162 0.0 2.0 0.00 0.00 0.00 94 1021.1
20260509143928 48 162 0.0 2.0 0.00 0.00 0.00 95 1021.1
20260509143924 48 162 0.0 2.0 0.00 0.00 0.00 94 1021.1
20260509142925 47 173 0.0 1.0 0.00 0.00 0.00 95 1021.1
20260509142423 47 171 0.0 0.0 0.00 0.00 0.00 95 1021.1
20260509141921 47 170 0.0 0.0 0.00 0.00 0.00 95 1020.9
20260509141422 47 170 0.0 0.0 0.00 0.00 0.00 95 1020.8
20260509140922 46 170 0.0 0.0 0.00 0.00 0.00 95 1020.8
20260509140422 46 170 0.0 0.0 0.00 0.00 0.00 95 1020.6
20260509135923 46 171 0.0 0.0 0.00 0.00 0.00 95 1020.7
20260509135427 45 170 0.0 2.0 0.00 0.00 0.00 95 1020.8
20260509135422 46 170 0.0 0.0 0.00 0.00 0.00 95 1020.7
20260509134421 45 170 0.0 2.0 0.00 0.00 0.00 95 1020.9
20260509133921 45 171 0.0 2.0 0.00 0.00 0.00 94 1020.8
20260509133420 45 171 0.0 2.0 0.00 0.00 0.00 95 1020.7
20260509132923 44 180 0.0 2.0 0.00 0.00 0.00 95 1020.6
20260509132919 44 179 0.0 2.0 0.00 0.00 0.00 95 1020.6
20260509131919 44 180 0.0 2.0 0.00 0.00 0.00 94 1020.6
20260509131420 44 180 0.0 2.0 0.00 0.00 0.00 94 1020.7
20260509130921 43 180 0.0 2.0 0.00 0.00 0.00 94 1020.7
20260509130423 43 180 0.0 0.0 0.00 0.00 0.00 93 1020.8
20260509130419 43 180 0.0 2.0 0.00 0.00 0.00 93 1020.7
20260509125419 43 180 0.0 2.0 0.00 0.00 0.00 93 1020.8
20260509124919 43 180 0.0 2.0 0.00 0.00 0.00 93 1020.8
20260509124417 43 180 0.0 0.0 0.00 0.00 0.00 92 1020.8
20260509123921 44 180 0.0 2.0 0.00 0.00 0.00 92 1020.9
20260509123917 44 180 0.0 0.0 0.00 0.00 0.00 92 1020.8
20260509122921 44 180 0.0 2.0 0.00 0.00 0.00 93 1020.9
20260509122915 44 180 0.0 2.0 0.00 0.00 0.00 93 1020.9
20260509121915 44 180 1.0 2.0 0.00 0.00 0.00 94 1020.9
20260509121415 44 173 0.0 2.0 0.00 0.00 0.00 94 1020.9
20260509120916 44 172 1.0 2.0 0.00 0.00 0.00 94 1021.1
20260509120416 44 171 0.0 2.0 0.00 0.00 0.00 93 1021.1
20260509115915 44 171 0.0 0.0 0.00 0.00 0.00 93 1021.1
20260509115413 44 171 0.0 0.0 0.00 0.00 0.00 94 1021.3
20260509114913 44 171 0.0 1.0 0.00 0.00 0.00 92 1021.2
20260509114413 45 171 0.0 1.0 0.00 0.00 0.00 92 1021.1
20260509113919 45 171 0.0 2.0 0.00 0.00 0.00 93 1021.2
20260509113913 45 171 0.0 2.0 0.00 0.00 0.00 92 1021.2
20260509112912 45 171 0.0 2.0 0.00 0.00 0.00 94 1021.2
20260509112413 45 200 0.0 2.0 0.00 0.00 0.00 94 1021.2
20260509111918 45 188 0.0 2.0 0.00 0.00 0.00 94 1021.3
20260509111914 45 186 0.0 2.0 0.00 0.00 0.00 94 1021.3
20260509111526 45 188 0.0 2.0 0.00 0.00 0.00 94 1021.2
20260509110412 45 188 0.0 2.0 0.00 0.00 0.00 94 1021.3
20260509105911 45 191 0.0 2.0 0.00 0.00 0.00 94 1021.3
20260509105411 44 191 0.0 2.0 0.00 0.00 0.00 92 1021.3
20260509104911 44 191 0.0 2.0 0.00 0.00 0.00 92 1021.4
20260509104411 45 190 0.0 2.0 0.00 0.00 0.00 92 1021.4
20260509103911 45 191 0.0 2.0 0.00 0.00 0.00 92 1021.5
20260509103418 46 191 0.0 0.0 0.00 0.00 0.00 92 1021.7
20260509103410 45 190 0.0 1.0 0.00 0.00 0.00 92 1021.5
20260509102910 45 191 0.0 1.0 0.00 0.00 0.00 93 1021.6
20260509102411 45 191 0.0 1.0 0.00 0.00 0.00 92 1021.6
20260509101414 46 191 0.0 0.0 0.00 0.00 0.00 93 1021.8
20260509101408 46 191 0.0 0.0 0.00 0.00 0.00 92 1021.7
20260509100909 46 191 0.0 0.0 0.00 0.00 0.00 93 1021.7
20260509095908 46 191 0.0 0.0 0.00 0.00 0.00 93 1021.7
20260509095408 46 191 0.0 0.0 0.00 0.00 0.00 93 1021.8
20260509094909 46 191 0.0 0.0 0.00 0.00 0.00 93 1021.7
20260509094409 45 191 0.0 0.0 0.00 0.00 0.00 92 1021.8
20260509093909 46 191 0.0 2.0 0.00 0.00 0.00 91 1021.8
20260509093409 46 191 0.0 2.0 0.00 0.00 0.00 92 1021.8
20260509092909 46 191 0.0 2.0 0.00 0.00 0.00 91 1021.9
20260509092406 46 191 0.0 2.0 0.00 0.00 0.00 91 1021.9
20260509091907 46 191 0.0 1.0 0.00 0.00 0.00 90 1021.8
20260509091406 47 191 0.0 2.0 0.00 0.00 0.00 90 1021.9
20260509090911 47 191 0.0 2.0 0.00 0.00 0.00 91 1022.0
20260509090907 47 191 0.0 2.0 0.00 0.00 0.00 90 1022.0
20260509085907 47 190 0.0 2.0 0.00 0.00 0.00 91 1022.0
20260509085407 47 190 0.0 2.0 0.00 0.00 0.00 90 1022.0
20260509084912 48 193 0.0 2.0 0.00 0.00 0.00 90 1022.0
20260509084907 47 192 0.0 2.0 0.00 0.00 0.00 89 1022.0
20260509083912 48 192 0.0 2.0 0.00 0.00 0.00 90 1022.0
20260509083906 48 192 0.0 1.0 0.00 0.00 0.00 90 1022.0
20260509082907 48 192 0.0 2.0 0.00 0.00 0.00 91 1022.1
20260509082408 49 192 1.0 2.0 0.00 0.00 0.00 90 1022.1
20260509081904 49 192 1.0 2.0 0.00 0.00 0.00 91 1022.1
20260509081406 49 195 0.0 2.0 0.00 0.00 0.00 90 1022.2
20260509080903 49 275 0.0 1.0 0.00 0.00 0.00 90 1022.1
20260509080402 49 296 0.0 0.0 0.00 0.00 0.00 90 1022.2
20260509075908 49 296 0.0 0.0 0.00 0.00 0.00 89 1022.1
20260509075902 49 296 0.0 0.0 0.00 0.00 0.00 88 1022.2
20260509074903 49 296 0.0 0.0 0.00 0.00 0.00 90 1022.2
20260509074403 49 296 0.0 2.0 0.00 0.00 0.00 89 1022.2
20260509073900 49 296 0.0 2.0 0.00 0.00 0.00 89 1022.2
20260509073400 49 295 0.0 0.0 0.00 0.00 0.00 89 1022.2
20260509072902 50 296 0.0 2.0 0.00 0.00 0.00 88 1022.2
20260509072401 50 295 0.0 2.0 0.00 0.00 0.00 88 1022.2
20260509071900 50 298 0.0 2.0 0.00 0.00 0.00 89 1022.3
20260509071401 50 262 0.0 2.0 0.00 0.00 0.00 88 1022.3
20260509070906 50 304 0.0 3.0 0.00 0.00 0.00 88 1022.3
20260509070901 50 304 0.0 3.0 0.00 0.00 0.00 88 1022.3
20260509065900 50 252 0.0 3.0 0.00 0.00 0.00 88 1022.2
20260509065401 51 248 0.0 3.0 0.00 0.00 0.00 87 1022.2
20260509064901 51 296 0.0 3.0 0.00 0.00 0.00 87 1022.2
20260509064400 51 269 1.0 5.0 0.00 0.00 0.00 87 1022.2
20260509063859 51 252 1.0 5.0 0.00 0.00 0.00 87 1022.2
20260509063359 51 218 1.0 5.0 0.00 0.00 0.00 87 1022.2
20260509062859 51 221 0.0 5.0 0.00 0.00 0.00 87 1022.2
20260509062359 51 222 1.0 4.0 0.00 0.00 0.00 87 1022.2
20260509061904 51 260 1.0 3.0 0.00 0.00 0.00 86 1022.2
20260509061859 51 201 1.0 4.0 0.00 0.00 0.00 87 1022.2
20260509060859 51 261 1.0 5.0 0.00 0.00 0.00 86 1022.2
20260509060359 52 252 0.0 5.0 0.00 0.00 0.00 86 1022.2
20260509055859 52 236 2.0 5.0 0.00 0.00 0.00 86 1022.2
20260509055404 52 219 0.0 3.0 0.00 0.00 0.00 85 1022.2
20260509055400 52 208 2.0 5.0 0.00 0.00 0.00 86 1022.3
20260509054857 52 200 1.0 3.0 0.00 0.00 0.00 86 1022.2
20260509053857 52 248 0.0 3.0 0.00 0.00 0.00 85 1022.2
20260509053358 52 242 1.0 3.0 0.00 0.00 0.00 85 1022.2
20260509052857 52 247 1.0 2.0 0.00 0.00 0.00 84 1022.3
20260509052357 53 251 1.0 7.0 0.00 0.00 0.00 84 1022.2
20260509051902 53 251 1.0 4.0 0.00 0.00 0.00 83 1022.2
20260509051858 53 229 1.0 7.0 0.00 0.00 0.00 84 1022.1
20260509051510 53 221 2.0 5.0 0.00 0.00 0.00 83 1022.2
20260509050357 53 263 2.0 5.0 0.00 0.00 0.00 83 1022.1
20260509045857 53 225 2.0 5.0 0.00 0.00 0.00 83 1021.9
20260509045357 53 258 1.0 4.0 0.00 0.00 0.00 83 1021.9
20260509044903 54 251 1.0 4.0 0.00 0.00 0.00 82 1022.0
20260509044858 53 259 1.0 4.0 0.00 0.00 0.00 82 1022.0
20260509043855 54 254 1.0 5.0 0.00 0.00 0.00 82 1021.9
20260509043355 54 234 1.0 5.0 0.00 0.00 0.00 81 1021.9
20260509042855 54 250 1.0 3.0 0.00 0.00 0.00 81 1021.8
20260509042355 54 238 1.0 3.0 0.00 0.00 0.00 81 1021.8
20260509041854 55 259 1.0 3.0 0.00 0.00 0.00 80 1021.8
20260509041353 55 269 1.0 4.0 0.00 0.00 0.00 79 1021.7
20260509040852 55 257 1.0 4.0 0.00 0.00 0.00 79 1021.7
20260509040354 56 254 1.0 4.0 0.00 0.00 0.00 78 1021.6
20260509035853 56 257 1.0 5.0 0.00 0.00 0.00 77 1021.7
20260509035353 56 223 1.0 5.0 0.00 0.00 0.00 77 1021.6
20260509034854 56 258 1.0 6.0 0.00 0.00 0.00 77 1021.5
20260509034352 57 253 1.0 6.0 0.00 0.00 0.00 76 1021.4
20260509033858 58 263 1.0 6.0 0.00 0.00 0.00 74 1021.4
20260509033854 57 243 1.0 4.0 0.00 0.00 0.00 75 1021.4
20260509033352 57 259 1.0 4.0 0.00 0.00 0.00 75 1021.4
20260509032350 58 217 1.0 6.0 0.00 0.00 0.00 73 1021.3
20260509031851 59 266 1.0 4.0 0.00 0.00 0.00 73 1021.4
20260509031352 59 284 1.0 4.0 0.00 0.00 0.00 71 1021.3
20260509031348 59 299 2.0 4.0 0.00 0.00 0.00 72 1021.4
20260509030348 60 271 1.0 5.0 0.00 0.00 0.00 71 1021.3
20260509025849 60 269 1.0 5.0 0.00 0.00 0.00 70 1021.2
20260509025347 60 239 1.0 5.0 0.00 0.00 0.00 69 1021.3
20260509024846 61 247 1.0 5.0 0.00 0.00 0.00 68 1021.2
20260509024352 62 269 2.0 6.0 0.00 0.00 0.00 67 1021.1
20260509024347 61 276 2.0 6.0 0.00 0.00 0.00 68 1021.2
20260509023848 62 288 2.0 6.0 0.00 0.00 0.00 67 1021.1
20260509022846 62 269 1.0 4.0 0.00 0.00 0.00 67 1021.0
20260509022348 62 259 1.0 4.0 0.00 0.00 0.00 67 1021.0
20260509021844 62 271 1.0 4.0 0.00 0.00 0.00 66 1021.1
20260509021355 65 245 2.0 7.0 0.00 0.00 0.00 64 1020.9
20260509021345 63 240 1.0 8.0 0.00 0.00 0.00 65 1021.0
20260509020846 64 271 2.0 8.0 0.00 0.00 0.00 65 1021.0
20260509020345 64 173 2.0 8.0 0.00 0.00 0.00 63 1021.0
20260509015845 64 256 2.0 8.0 0.00 0.00 0.00 63 1021.0
20260509015346 65 304 2.0 7.0 0.00 0.00 0.00 63 1020.9
20260509014350 64 267 2.0 10.0 0.00 0.00 0.00 63 1020.9
20260509014344 64 242 2.0 10.0 0.00 0.00 0.00 63 1020.9
20260509013342 65 218 2.0 10.0 0.00 0.00 0.00 62 1020.9
20260509012844 65 238 2.0 10.0 0.00 0.00 0.00 62 1021.0
20260509012348 65 247 2.0 6.0 0.00 0.00 0.00 63 1021.0
20260509012343 65 259 2.0 6.0 0.00 0.00 0.00 62 1021.0
20260509011343 65 235 3.0 7.0 0.00 0.00 0.00 61 1021.0
20260509010842 65 238 3.0 7.0 0.00 0.00 0.00 60 1021.1
20260509010342 66 241 3.0 7.0 0.00 0.00 0.00 59 1021.2
20260509005843 66 300 2.0 7.0 0.00 0.00 0.00 59 1021.2
20260509005343 67 248 2.0 7.0 0.00 0.00 0.00 60 1021.2
20260509004844 66 223 3.0 9.0 0.00 0.00 0.00 60 1021.2
20260509004344 66 233 3.0 9.0 0.00 0.00 0.00 60 1021.2
20260509003842 67 265 3.0 9.0 0.00 0.00 0.00 60 1021.2
20260509003344 67 294 3.0 9.0 0.00 0.00 0.00 60 1021.2
20260509002844 67 307 3.0 8.0 0.00 0.00 0.00 60 1021.2
20260509002343 66 296 4.0 11.0 0.00 0.00 0.00 59 1021.2
20260509001842 67 299 4.0 11.0 0.00 0.00 0.00 59 1021.2
20260509001344 67 346 3.0 9.0 0.00 0.00 0.00 59 1021.1
20260509000841 67 242 3.0 7.0 0.00 0.00 0.00 59 1021.1
20260509000340 66 302 4.0 9.0 0.00 0.00 0.00 59 1021.1
20260508235840 67 303 4.0 9.0 0.00 0.00 0.00 59 1021.2
20260508235339 67 334 4.0 9.0 0.00 0.00 0.00 60 1021.2
20260508234838 67 294 3.0 9.0 0.00 0.00 0.00 58 1021.2
20260508234339 66 252 4.0 9.0 0.00 0.00 0.00 60 1021.2
20260508233839 66 301 4.0 10.0 0.00 0.00 0.00 58 1021.3
20260508233343 67 315 4.0 8.0 0.00 0.00 0.00 60 1021.3
20260508233338 67 302 4.0 10.0 0.00 0.00 0.00 59 1021.3
20260508232344 66 317 4.0 11.0 0.00 0.00 0.00 59 1021.3
20260508232340 66 306 4.0 8.0 0.00 0.00 0.00 60 1021.3
20260508231340 66 11 4.0 11.0 0.00 0.00 0.00 59 1021.2
20260508230838 67 213 3.0 10.0 0.00 0.00 0.00 59 1021.3
20260508230339 66 265 4.0 10.0 0.00 0.00 0.00 61 1021.4
20260508225838 66 9 4.0 10.0 0.00 0.00 0.00 60 1021.2
20260508225340 66 297 4.0 8.0 0.00 0.00 0.00 60 1021.4
20260508224836 65 298 5.0 9.0 0.00 0.00 0.00 61 1021.4
20260508224336 66 336 5.0 9.0 0.00 0.00 0.00 58 1021.3
20260508223841 66 322 3.0 8.0 0.00 0.00 0.00 59 1021.3
20260508223836 65 336 4.0 9.0 0.00 0.00 0.00 60 1021.4
20260508222834 66 304 3.0 8.0 0.00 0.00 0.00 61 1021.3